Lapse_Rate
5.3 5.3 5.4 5.4 5.6 5.6 5.7 5.7 5.7 5.9 5.9 6.1 5.9 5.8 5.8 5.7 5.7 5.5 5.4 5.0 5.0 4.9 4.9 4.8 4.9 4.9 4.9 5.0 5.0 5.1 5.2 5.4 5.6 5.6 5.8 5.7 5.7 5.8
5.5 5.4 5.3 5.4 5.4 5.5 5.5 5.6 5.7 5.5 5.7 5.7 5.7 5.6 5.7 5.6 5.6 5.6 5.4 5.3 5.1 4.8 4.9 4.9 4.8 4.9 4.9 4.8 4.8 4.8 5.1 5.3 5.5 5.5 5.6 5.5 5.4 5.5
5.8 5.8 5.6 5.5 5.4 5.4 5.5 5.5 5.5 5.6 5.5 5.6 5.6 5.7 5.9 5.7 5.6 5.6 5.5 5.4 5.2 5.0 5.0 4.8 4.7 4.8 4.9 4.8 4.7 4.8 5.1 5.2 5.3 5.2 5.3 5.5 5.4 5.3
5.8 6.0 6.1 5.7 5.6 5.4 5.4 5.6 5.7 5.7 5.6 5.7 5.8 5.7 5.7 5.8 5.6 5.6 5.6 5.5 5.2 4.9 5.0 5.0 4.9 4.9 4.8 4.8 4.7 4.8 4.8 4.9 5.1 5.0 4.9 5.0 5.1 5.1
5.7 5.8 6.0 6.2 6.0 5.8 5.5 5.5 5.6 5.6 5.7 5.5 5.7 5.8 5.7 5.8 5.7 5.7 5.5 5.4 5.2 4.9 4.8 5.0 5.0 4.9 5.0 4.9 4.8 4.7 4.6 4.6 4.8 4.7 4.7 4.8 4.8 4.9
5.7 5.6 5.6 6.0 6.1 6.4 5.7 5.6 5.6 5.7 5.8 5.7 5.8 5.7 5.7 5.6 5.6 5.7 5.5 5.5 5.1 5.0 4.9 5.0 4.9 4.8 4.7 4.7 4.6 4.6 4.4 4.3 4.4 4.6 4.6 4.7 4.8 4.9
5.5 5.4 5.6 6.0 5.6 5.4 5.8 5.8 5.6 5.7 5.6 5.9 5.8 5.7 5.8 5.7 5.6 5.7 5.6 5.5 5.2 4.9 5.0 4.9 4.7 4.6 4.7 4.6 4.5 4.4 4.1 4.3 4.4 4.5 4.5 4.6 4.7 4.8
5.5 5.3 5.3 5.4 5.0 5.1 5.3 5.2 5.3 5.1 5.2 5.4 5.3 5.3 5.4 5.4 5.4 5.6 5.4 5.1 5.0 4.8 4.8 4.7 4.6 4.8 4.7 4.6 4.4 4.3 4.3 4.4 4.6 4.6 4.7 4.7 4.7 4.9
5.1 4.7 4.7 5.0 4.9 4.7 4.9 4.9 5.0 5.1 5.1 5.4 5.4 5.4 5.3 5.3 5.3 5.5 5.1 5.0 5.2 5.0 4.7 4.7 4.8 4.7 4.6 4.6 4.2 4.0 4.2 4.3 4.5 4.6 4.4 4.5 4.6 4.8
5.1 5.2 4.7 4.7 4.5 4.3 3.9 4.2 4.3 4.7 5.1 4.9 5.1 5.4 5.6 5.6 5.5 5.2 5.1 5.1 4.8 4.8 4.8 4.7 4.6 4.6 4.5 4.2 4.0 4.0 4.1 4.3 4.4 4.4 4.4 4.5 4.6 4.7
5.0 5.1 5.0 4.7 4.8 4.7 4.3 4.5 4.0 4.5 5.0 5.4 5.7 5.6 5.6 5.4 5.5 5.4 5.2 5.0 4.9 4.8 4.8 4.6 4.5 4.3 4.3 4.3 4.0 4.1 4.2 4.4 4.4 4.3 4.4 4.5 4.6 4.7
5.0 5.0 5.0 5.1 5.4 5.1 5.3 5.2 4.5 5.2 5.4 5.4 5.2 5.4 5.5 5.5 5.4 5.1 4.9 4.9 4.7 4.8 4.7 4.6 4.4 4.4 4.3 4.2 4.1 4.2 4.4 4.4 4.4 4.2 4.2 4.2 4.3 4.6
5.3 5.3 5.1 5.2 5.3 5.6 5.6 5.3 4.4 4.4 4.7 5.4 5.5 5.4 5.5 5.4 5.1 4.9 4.8 4.8 4.9 4.8 4.5 4.3 4.2 4.1 4.3 4.5 4.5 4.5 4.6 4.6 4.5 4.3 4.4 4.5 4.5 4.6
5.5 5.4 5.4 5.5 5.4 5.6 5.9 5.0 4.8 4.1 5.1 5.3 5.4 5.5 5.4 5.2 5.0 5.0 4.9 5.0 4.6 4.4 4.3 4.2 4.2 4.3 4.5 4.6 4.7 4.8 4.6 4.6 4.6 4.5 4.6 4.5 4.5 4.7
5.7 5.5 5.1 5.3 5.2 5.3 5.8 5.4 4.4 4.5 5.3 5.5 5.2 5.3 5.1 4.9 4.9 5.0 5.0 4.6 4.4 4.3 4.2 4.3 4.4 4.6 4.7 4.7 4.7 4.6 4.6 4.9 4.6 4.7 4.7 4.7 5.0 5.2
6.1 6.1 5.8 5.8 5.8 5.8 5.6 5.3 4.6 5.0 5.0 4.7 5.3 5.1 5.1 5.1 5.0 4.9 4.7 4.4 4.6 4.5 4.6 4.5 4.4 4.4 4.5 4.5 4.5 4.4 4.5 4.5 4.5 4.5 4.6 4.9 5.1 5.3
5.5 5.4 5.7 5.9 6.2 6.2 6.1 5.4 4.7 5.0 4.8 5.2 5.2 5.1 5.0 5.0 4.8 4.8 4.7 4.9 5.1 4.8 4.9 4.5 4.3 4.4 4.4 4.4 4.3 4.4 4.4 4.6 4.4 4.5 4.6 4.9 5.3 5.6
5.8 5.8 5.8 5.8 5.8 5.7 5.4 4.8 4.7 4.6 4.7 5.1 5.1 4.8 4.7 4.7 4.6 4.8 5.0 5.1 4.9 4.9 4.8 4.2 3.9 4.1 4.1 4.1 4.2 4.4 4.6 4.5 4.6 4.8 5.0 5.2 5.6 6.0
5.4 5.6 5.7 5.5 5.3 4.8 4.5 4.6 4.7 4.6 4.5 4.7 4.6 4.4 4.3 4.5 4.8 4.8 4.8 4.9 4.8 4.9 4.8 4.6 4.6 4.1 3.9 4.0 4.2 4.7 4.8 4.8 4.9 5.2 5.4 5.7 6.0 6.3
5.4 5.4 5.3 5.1 5.1 5.0 4.7 4.4 4.1 4.0 4.0 3.8 4.0 4.3 4.8 4.9 4.8 4.9 4.7 4.7 4.6 4.7 4.8 4.8 4.8 4.3 3.9 4.3 4.5 4.8 5.0 5.3 5.3 5.6 5.9 6.1 6.3 6.5
5.1 5.0 4.9 4.7 4.7 4.7 4.7 4.7 4.7 4.7 4.7 4.7 4.8 4.9 4.6 4.5 4.6 4.9 4.8 4.5 4.5 4.6 4.7 4.8 4.5 4.2 4.7 4.4 4.8 5.1 5.3 5.7 5.7 5.9 6.1 6.3 6.4 6.6
5.4 5.3 5.0 4.8 4.6 4.5 4.6 4.7 4.7 4.8 4.8 4.8 4.7 4.7 4.6 4.7 4.7 4.6 4.5 4.4 4.6 4.7 4.9 4.8 4.7 4.6 4.5 4.7 5.1 5.3 5.8 5.9 6.0 6.1 6.3 6.2 6.1 6.4
5.6 5.6 5.6 5.6 5.5 5.3 5.2 5.1 5.0 4.9 4.9 4.8 4.6 4.6 4.7 4.8 4.7 4.5 4.5 4.6 4.8 5.0 5.0 4.8 4.6 4.6 4.8 5.1 5.4 5.8 6.1 6.2 6.2 6.6 6.7 6.4 6.3 6.3
Wind_Speed
11 11 9 7 7 6 6 8 6 6 8 7 5 8 6 7 6 6 6 10 8 7 8 8 9 8 9 10 11 11 13 15 16 18 19 20 21 22
9 12 10 8 8 7 7 7 5 4 4 5 5 8 9 7 6 8 9 12 7 6 8 9 9 9 8 8 8 9 11 14 15 17 18 19 20 21
12 13 13 11 8 8 7 7 7 6 6 4 6 9 9 7 8 7 9 8 8 7 9 9 9 9 10 8 9 9 10 12 13 14 16 18 19 20
13 13 14 9 12 10 8 9 8 8 7 11 9 7 8 9 8 8 9 8 8 7 8 9 9 8 8 10 10 10 11 12 13 13 14 15 17 18
12 13 14 14 13 10 10 9 8 7 7 8 7 7 6 7 7 7 8 8 7 6 7 8 7 8 7 8 7 8 9 11 12 12 13 15 16 17
12 13 13 13 14 14 12 12 10 9 8 8 8 9 7 8 7 7 7 6 5 4 4 4 4 6 6 6 5 6 7 8 10 11 10 13 13 14
13 13 11 11 11 13 9 11 10 8 8 8 7 6 7 6 9 6 6 7 5 5 4 7 6 3 3 4 4 4 4 8 8 9 9 11 12 13
10 9 9 9 9 12 10 10 12 10 10 6 6 7 8 7 7 8 7 7 4 8 4 5 5 3 2 2 2 2 3 5 8 7 10 11 12 13
9 8 7 6 9 10 10 13 12 12 12 10 10 9 9 10 10 10 9 7 4 5 5 5 6 3 2 4 3 2 3 6 7 9 12 13 13 14
8 6 8 9 9 10 9 9 9 10 10 7 9 9 9 12 11 8 9 7 5 3 3 4 4 4 3 4 6 1 3 7 7 11 13 13 15 16
10 10 9 9 13 15 10 9 8 6 7 7 6 12 14 18 16 8 7 7 4 4 4 3 3 2 3 4 8 4 5 5 9 13 13 13 14 16
10 9 15 11 15 17 11 11 10 10 9 8 7 10 16 17 18 11 7 6 3 3 5 4 4 2 2 3 6 5 5 5 11 12 11 11 13 13
9 9 8 18 18 19 17 11 12 11 11 9 8 7 8 9 9 9 9 4 4 2 6 3 3 2 2 2 3 6 4 7 9 10 8 10 14 15
9 6 8 18 18 20 15 13 13 14 7 7 7 7 7 7 7 9 7 5 3 3 12 7 2 3 2 2 3 2 5 9 8 10 11 14 15 16
6 10 12 15 16 16 17 17 18 7 7 7 7 7 7 6 10 9 8 6 3 5 8 8 5 4 4 3 3 3 4 4 13 9 12 13 13 15
9 6 10 14 16 14 12 12 8 7 8 8 7 6 6 6 6 5 5 5 3 4 7 9 9 7 4 5 5 7 6 5 4 9 11 12 15 15
7 5 6 8 8 8 8 9 8 8 8 7 7 7 6 6 5 5 3 4 4 4 5 6 10 10 9 5 6 7 7 7 6 7 7 9 9 15
4 6 7 8 9 9 8 8 8 10 7 7 7 7 7 6 6 5 4 5 5 5 5 5 5 4 4 9 20 8 6 7 6 7 8 9 9 11
5 7 7 8 7 7 8 8 8 7 7 6 6 7 7 6 9 6 5 6 6 5 5 5 5 7 7 8 4 18 7 6 6 8 8 7 10 11
4 5 6 6 7 7 8 8 7 7 7 7 7 6 6 6 6 7 6 7 7 6 6 5 6 7 8 6 3 3 17 8 8 8 8 8 15 25
3 3 3 4 5 6 6 7 7 7 7 6 6 6 6 6 7 7 8 13 12 7 8 8 9 14 5 1 4 7 6 19 19 10 8 9 10 11
2 3 3 4 4 5 5 5 6 6 6 6 6 7 7 7 7 8 8 7 8 8 8 5 5 5 6 6 8 9 7 7 13 19 22 21 9 9
2 2 3 3 5 6 6 5 6 6 6 7 6 7 7 7 7 7 7 7 7 7 7 6 6 6 6 6 9 8 10 9 7 8 8 18 23 28
Wind_Direction
200 203 208 205 202 201 196 196 189 182 192 181 166 181 157 150 136 129 120 114 95 94 83 70 67 69 58 50 42 42 47 44 34 31 29 25 21 17
195 197 202 200 200 193 195 195 206 214 165 158 184 165 162 144 141 138 140 127 106 100 94 92 74 77 64 52 47 59 50 38 37 30 28 26 21 17
195 196 198 197 198 195 188 189 189 190 184 148 158 160 164 163 160 143 160 149 124 124 116 100 89 80 79 67 76 77 61 49 36 30 27 24 20 16
196 200 197 191 198 199 194 191 190 183 173 162 163 170 170 172 166 163 157 153 134 129 122 105 98 98 89 99 88 65 55 37 35 30 24 22 22 15
197 199 201 192 194 190 198 189 185 177 171 166 157 167 160 167 162 160 157 142 137 145 144 129 101 94 95 92 91 77 60 40 30 20 17 15 15 12
201 205 197 195 197 188 190 190 185 177 173 167 169 172 168 177 177 167 176 183 159 155 176 121 129 94 95 107 101 85 53 31 23 13 10 6 5 3
192 202 206 198 201 193 181 183 178 180 178 175 167 173 175 172 189 178 182 178 189 189 186 192 170 149 107 121 148 138 39 20 12 8 360 355 350 348
185 193 196 170 196 186 184 173 184 177 179 168 170 188 188 184 178 175 168 174 192 195 206 186 206 169 130 136 97 119 14 15 5 4 350 341 335 332
173 168 178 177 180 187 189 183 186 192 186 175 183 193 186 186 177 171 180 189 184 154 195 184 197 212 190 163 161 119 15 1 1 352 337 331 329 327
136 164 180 182 179 170 185 194 192 196 193 191 195 188 191 180 176 180 171 139 108 152 209 198 174 220 200 192 188 229 337 350 347 336 330 328 327 325
156 165 182 187 181 173 181 188 193 190 166 175 172 159 162 168 165 148 161 163 172 179 189 217 178 241 237 210 201 229 301 320 332 325 324 326 326 319
159 177 180 181 176 178 184 177 185 192 171 159 144 150 154 161 163 178 164 172 136 171 179 191 181 205 228 204 218 256 279 289 315 320 315 313 320 319
166 176 179 185 184 187 193 192 196 165 177 167 162 156 156 159 173 183 177 170 156 157 155 155 183 186 232 260 226 227 244 305 318 321 303 300 308 313
176 183 170 180 186 188 188 197 163 162 169 165 164 170 167 173 177 178 170 162 148 147 163 172 171 192 206 253 259 211 296 313 317 311 301 310 310 314
157 161 164 176 194 191 188 174 164 172 173 170 178 177 174 163 154 148 142 134 126 137 163 185 189 185 204 230 285 298 320 318 307 291 301 308 311 314
155 165 174 179 187 187 181 174 179 185 187 185 179 163 144 152 168 162 160 168 172 196 199 202 197 182 213 234 254 274 277 276 287 292 293 296 299 298
136 140 174 185 184 183 179 182 182 188 189 182 170 165 171 161 156 161 161 165 201 186 196 194 204 211 231 253 255 250 267 268 269 278 286 285 285 289
159 180 186 190 188 188 183 184 188 190 187 177 176 171 167 167 162 166 177 197 206 202 204 189 181 202 234 245 227 251 254 262 272 276 279 285 286 287
196 193 196 192 192 190 190 191 189 188 171 173 174 177 171 169 167 180 186 207 215 217 207 189 199 214 238 254 246 217 241 260 275 279 279 281 287 292
200 182 187 183 183 184 189 191 185 173 177 180 178 172 170 166 177 187 195 211 215 216 214 204 215 214 225 245 255 229 215 255 268 278 287 288 281 285
166 179 186 184 189 191 192 189 183 181 177 178 180 177 180 191 198 186 198 211 219 217 222 221 220 216 214 118 251 253 243 233 251 270 284 291 293 299
129 173 173 173 178 182 179 179 177 179 175 187 195 189 189 197 204 204 204 206 215 213 222 220 161 171 195 226 257 273 273 269 269 266 267 264 275 288
192 191 188 195 194 190 184 187 189 190 188 191 194 195 193 201 205 207 204 204 213 213 201 199 199 201 222 235 262 279 280 281 284 283 271 265 272 277